South Haven, MI

1:39 AM EDT on April 23, 2017 (GMT -0400)
South Haven

Weather History for KLWA - January, 2013

Change the Weather History Date:

Wednesday, January 23, 2013

  Actual Average (KBEH) Record (KBEH)
Temperature  
Mean Temperature 17 °F -  
Max Temperature 21 °F 35 °F 56 °F (1967)
Min Temperature 13 °F 20 °F -9 °F (2011)
Degree Days  
Heating Degree Days 48    
Moisture  
Dew Point 12 °F    
Average Humidity 77    
Maximum Humidity 89    
Minimum Humidity 51    
Precipitation  
Precipitation 0.00 in - - ()
Sea Level Pressure  
Sea Level Pressure 30.14 in    
Wind  
Wind Speed 10 mph (WNW)    
Max Wind Speed 21 mph    
Max Gust Speed 31 mph    
Visibility 3 miles    
Events Snow    
Averages and records for this station are not official NWS values.
T = Trace of Precipitation, MM = Missing Value Source: NWS Daily Summary

Daily Weather History Graph

Daily Weather History Graph

Search for Another Location

Airport or City:

Trip Planner

Search our weather history database for the weather conditions in past years. The results will help you decide how hot, cold, wet, or windy it might be!

Date:

Astronomy

Jan. 23, 2013 Rise Set
Actual Time 8:06 AM EST 5:47 PM EST
Civil Twilight 7:36 AM EST 6:18 PM EST
Nautical Twilight 7:01 AM EST 6:52 PM EST
Astronomical Twilight 6:28 AM EST 7:25 PM EST
Moon 2:56 PM EST 5:18 AM EST
Length of Visible Light 10h 42m
Length of Day
9h 41m
Waxing Gibbous, 89% of the Moon is Illuminated
Jan 23
Waxing Gibbous
Jan 26
Full
Feb 3
Last Quarter
Feb 10
New
Feb 17
First Quarter

Hourly Weather History & Observations

Time (EST) Temp. Windchill Dew Point Humidity Pressure Visibility Wind Dir Wind Speed Gust Speed Precip Events Conditions
12:15 AM 13.1 °F 1.8 °F 8.6 °F 82% 30.27 in 1.2 mi WNW 8.1 mph 17.3 mph N/A Snow Light Snow
12:35 AM 13.8 °F 3.7 °F 10.0 °F 85% 30.27 in 1.0 mi NNW 6.9 mph - N/A Snow Light Snow
12:55 AM 14.0 °F 5.1 °F 6.6 °F 72% 30.26 in 5.0 mi NW 5.8 mph - N/A Snow Light Snow
1:14 AM 14.0 °F 2.0 °F 6.8 °F 73% 30.26 in 5.0 mi NNW 9.2 mph - N/A Snow Light Snow
1:35 AM 13.6 °F 3.5 °F 9.1 °F 82% 30.26 in 1.5 mi NNW 6.9 mph - N/A Snow Light Snow
1:55 AM 13.6 °F 2.5 °F 8.8 °F 81% 30.25 in 1.8 mi WNW 8.1 mph - N/A Snow Light Snow
2:14 AM 14.0 °F 5.1 °F 8.6 °F 79% 30.25 in 2.0 mi NW 5.8 mph - N/A Snow Light Snow
2:35 AM 14.2 °F 5.3 °F 5.9 °F 70% 30.25 in 7.0 mi NW 5.8 mph - N/A Snow Light Snow
2:36 AM 14.4 °F 4.3 °F 5.9 °F 69% 30.25 in 7.0 mi NNW 6.9 mph - N/A Snow Light Snow
4:58 AM - - - N/A% - 0.6 mi North - - N/A   Unknown
7:36 AM 14.0 °F 5.1 °F 6.8 °F 73% 30.22 in 10.0 mi West 5.8 mph - N/A   Overcast
7:56 AM 15.8 °F 7.2 °F 6.8 °F 68% 30.21 in 10.0 mi West 5.8 mph - N/A   Overcast
8:16 AM 15.8 °F 7.2 °F 6.8 °F 68% 30.21 in 10.0 mi West 5.8 mph - N/A   Overcast
8:56 AM 15.8 °F 5.1 °F 6.8 °F 68% 30.20 in 10.0 mi West 8.1 mph - N/A   Overcast
9:17 AM 15.8 °F 4.2 °F 6.8 °F 68% 30.20 in 7.0 mi WSW 9.2 mph 17.3 mph N/A   Overcast
9:24 AM 16.7 °F 5.3 °F 6.8 °F 65% 30.20 in 10.0 mi WSW 9.2 mph - N/A   Overcast
9:35 AM 16.7 °F 6.2 °F 7.7 °F 68% 30.20 in 10.0 mi West 8.1 mph - N/A   Overcast
9:55 AM 17.1 °F 2.5 °F 7.7 °F 67% 30.20 in 10.0 mi WSW 15.0 mph 18.4 mph N/A   Overcast
10:15 AM 17.4 °F 6.2 °F 7.3 °F 65% 30.20 in 10.0 mi West 9.2 mph 17.3 mph N/A   Overcast
10:34 AM 17.6 °F 6.4 °F 8.4 °F 67% 30.20 in 7.0 mi West 9.2 mph - N/A   Overcast
10:55 AM 17.6 °F 6.4 °F 8.8 °F 68% 30.20 in 5.0 mi WSW 9.2 mph 17.3 mph N/A Snow Light Snow
11:15 AM 18.0 °F 4.2 °F 10.4 °F 72% 30.20 in 3.0 mi WSW 13.8 mph - N/A Snow Light Snow
11:35 AM 18.0 °F 5.4 °F 10.9 °F 74% 30.20 in 2.5 mi WSW 11.5 mph 17.3 mph N/A Snow Light Snow
11:55 AM 17.6 °F 4.3 °F 12.6 °F 81% 30.19 in 1.0 mi WSW 12.7 mph 19.6 mph N/A Snow Light Snow
12:15 PM 17.6 °F 5.0 °F 13.3 °F 83% 30.17 in 0.8 mi West 11.5 mph - N/A Snow Light Snow
12:35 PM 18.0 °F 6.1 °F 13.3 °F 82% 30.16 in 1.2 mi WSW 10.4 mph 17.3 mph N/A Snow Light Snow
12:54 PM 18.1 °F 5.0 °F 12.7 °F 79% 30.15 in 1.2 mi WSW 12.7 mph 19.6 mph N/A Snow Light Snow
1:15 PM 18.5 °F 5.5 °F 13.1 °F 79% 30.14 in 1.5 mi West 12.7 mph 17.3 mph N/A Snow Light Snow
1:35 PM 18.9 °F 5.3 °F 13.5 °F 79% 30.12 in 1.8 mi West 13.8 mph - N/A Snow Light Snow
1:55 PM 18.5 °F 5.5 °F 14.7 °F 85% 30.11 in 1.2 mi WSW 12.7 mph 18.4 mph N/A Snow Light Snow
2:15 PM 18.5 °F 4.9 °F 14.7 °F 85% 30.10 in 0.8 mi WSW 13.8 mph - N/A Snow Light Snow
2:34 PM 19.2 °F 6.4 °F 13.6 °F 79% 30.09 in 1.2 mi WSW 12.7 mph 16.1 mph N/A Snow Light Snow
2:55 PM 18.5 °F 6.8 °F 15.3 °F 87% 30.09 in 0.5 mi WSW 10.4 mph 19.6 mph N/A Snow Snow
3:15 PM 19.0 °F 7.5 °F 15.3 °F 85% 30.08 in 0.8 mi WSW 10.4 mph 18.4 mph N/A Snow Light Snow
3:35 PM 19.0 °F 5.0 °F 14.9 °F 84% 30.08 in 0.8 mi West 15.0 mph 19.6 mph N/A Snow Light Snow
3:55 PM 19.2 °F 7.7 °F 14.5 °F 82% 30.07 in 1.8 mi WSW 10.4 mph - N/A Snow Light Snow
4:14 PM 19.4 °F 7.9 °F 15.4 °F 85% 30.07 in 1.0 mi WSW 10.4 mph 17.3 mph N/A Snow Light Snow
4:35 PM 19.4 °F 7.2 °F 15.8 °F 86% 30.05 in 1.0 mi WSW 11.5 mph - N/A Snow Light Snow
4:55 PM 19.9 °F 9.3 °F 15.8 °F 84% 30.05 in 1.5 mi WSW 9.2 mph 17.3 mph N/A Snow Light Snow
5:14 PM 20.5 °F 11.7 °F 15.3 °F 80% 30.05 in 3.0 mi SW 6.9 mph 11.5 mph N/A Snow Light Snow
5:35 PM 17.6 °F 9.3 °F 14.5 °F 88% 30.05 in 1.2 mi South 5.8 mph - N/A Snow Light Snow
5:55 PM 17.1 °F - 14.4 °F 89% 30.05 in 1.2 mi Calm Calm - N/A Snow Light Snow
6:15 PM 21.2 °F 11.7 °F 18.1 °F 88% 30.05 in 1.2 mi West 8.1 mph 17.3 mph N/A Snow Light Snow
6:35 PM 21.7 °F 9.0 °F 18.0 °F 85% 30.05 in 2.0 mi West 13.8 mph 19.6 mph N/A Snow Light Snow
6:55 PM 21.6 °F 7.8 °F 18.1 °F 87% 30.05 in 1.2 mi WNW 16.1 mph 19.6 mph N/A Snow Light Snow
7:15 PM 21.4 °F 8.0 °F 18.3 °F 88% 30.05 in 1.0 mi WNW 15.0 mph 19.6 mph N/A Snow Light Snow
7:35 PM 20.8 °F 7.9 °F 17.4 °F 87% 30.05 in 1.0 mi WNW 13.8 mph 26.5 mph N/A Snow Light Snow
7:55 PM 21.2 °F 6.8 °F 16.9 °F 83% 30.05 in 1.2 mi WNW 17.3 mph 25.3 mph N/A Snow Light Snow
8:14 PM 21.6 °F 7.3 °F 16.3 °F 80% 30.05 in 2.5 mi NW 17.3 mph 23.0 mph N/A Snow Light Snow
8:35 PM 21.0 °F 7.6 °F 16.2 °F 81% 30.06 in 1.5 mi WNW 15.0 mph 26.5 mph N/A Snow Light Snow
8:55 PM 20.1 °F 5.9 °F 16.9 °F 87% 30.06 in 0.8 mi NNW 16.1 mph 25.3 mph N/A Snow Light Snow
9:15 PM 20.8 °F 5.5 °F 11.5 °F 67% 30.07 in 2.0 mi NNW 19.6 mph 31.1 mph N/A Snow Light Snow
9:35 PM 19.2 °F 4.7 °F 15.1 °F 84% 30.09 in 0.8 mi NNW 16.1 mph 31.1 mph N/A Snow Light Snow
9:54 PM 20.3 °F 4.8 °F 12.2 °F 71% 30.09 in 3.0 mi North 19.6 mph 27.6 mph N/A Snow Light Snow
10:15 PM 19.4 °F 5.5 °F 11.1 °F 70% 30.10 in 3.0 mi North 15.0 mph 27.6 mph N/A Snow Light Snow
10:35 PM 19.4 °F 3.6 °F 8.2 °F 62% 30.12 in 3.0 mi North 19.6 mph 29.9 mph N/A   Haze
10:55 PM 18.5 °F 2.4 °F 6.8 °F 60% 30.13 in 2.5 mi North 19.6 mph 29.9 mph N/A Snow Light Snow
11:14 PM 18.5 °F 4.3 °F 4.5 °F 54% 30.15 in 3.0 mi North 15.0 mph 28.8 mph N/A   Haze
11:35 PM 18.3 °F 1.8 °F 2.7 °F 51% 30.16 in 7.0 mi NNW 20.7 mph 28.8 mph N/A   Overcast
11:55 PM 16.7 °F 3.8 °F 13.1 °F 86% 30.19 in 0.8 mi North 11.5 mph 28.8 mph N/A Snow Light Snow